Weather in Staryy Uryup

Russia / Kemerovo Oblast     55°50′08″N   89°20′09″E
temp.,
°C
wind,
m/s
gust,
m/s
humid.,
%
clouds,
%
prec.,
mm/h
press.,
hPa
HPBL,
m
17 april, sat
sat1701:000nnw4898100 4.8 1014593
04:00−1w2595100 1.7 1016337
07:00−3n5890100 1.9 1018503
10:00−4nnw4576100 0.0 1020877
13:00−2nnw4561100 0.1 10211398
16:00−1nnw335298 0.0 10221517
19:00−1wnw236395 0.1 1023313
22:00−3wsw23742 0.0 102556
18 april, sun
sun1801:00−4s247522 0.0 1024108
04:00−3sse2573100 0.0 1022217
07:00−2s3570100 0.0 1020291
10:00+1sw5957100 0.0 10171243
13:00+2wsw81152100 0.0 10141509
16:00+4wsw71058100 0.0 10131731
19:00+3sw4967100 0.1 1011394
22:00+1se3580100 0.0 100785
19 april, mon
mon1901:00+2ssw41088100 1.5 1001392
04:00+1sw41499100 6.8 997767
07:000wsw1018846 7.9 9981225
10:00−6w131885100 0.4 10071323
13:00−5wnw121683100 0.8 10151309
16:00−4wnw9135998 0.1 10181899
19:00−5wnw71166100 0.1 10211544
22:00−7wnw597463 0.0 1024908
20 april, tue
tue2001:00−8wnw58715 0.0 1025867
04:00−8wnw486916 0.0 1025883
07:00−9w576984 0.0 10261079
10:00−7w5659100 0.1 10271538
13:00−5wnw5655100 0.1 10261712
16:00−4wnw5648100 0.1 10251818
19:00−4nw3553100 0.1 10251036
22:00−6w116992 0.0 102513
21 april, wed
wed2101:00−6wsw117297 0.0 102417
04:00−6ssw2377100 0.1 102491
07:00−6sw2473100 0.1 1025189
10:00−4wsw235399 0.0 10261258
13:00−2wnw234588 0.1 10261567
16:00−1nne124296 0.0 10261394
19:00−1ene334990 0.0 1027773
22:00−3e356190 0.0 1029129